Zurück zum Katalog

OrigamiSat 2

ORIGAMISAT-2

AktivAmateurfunkSSO
NORAD 68795·PAYLOAD·🇯🇵 Japan

Gestartet Apr 23, 2026 von Rocket Lab Launch Complex 1

Loading…

Nächste Überflüge (nächste 24 Stunden)

TLE

AktuellSource: AMSAT

Epoche: Sep 14, 2026, 09:05 UTC

1 68795U 26088D   26257.37902558  .00009657  00000-0  58785-3 0  9993
2 68795  97.5181  44.9723 0015436 130.5800 229.6776 15.10517855 21755

Verfolge OrigamiSat 2 in Echtzeit mit AllMySat

Download on the App Store